Location: Nairn
(57.5833°N, 3.8667°W)
Time: 02:06:27
(UTC+00:00)

Transit 2A - Pass Details

Date: 05 December 2020
Orbit: 598 x 960 km, 66.7° (Epoch: 20 January)

Event Time Altitude Azimuth Distance (km) Brightness Sun altitude
Rises 20:37:17 0° 289° (WNW) 3,508 10.3 -38.8°
Reaches altitude 10° 20:40:10 10° 299° (WNW) 2,514 9.3 -39.1°
Enters shadow 20:42:46 23° 318° (NW) 1,739 8.2 -39.4°
